TimeAST,TemperatureF,Dew PointF,Humidity,Sea Level PressureIn,VisibilityMPH,Wind Direction,Wind SpeedMPH,Gust SpeedMPH,PrecipitationIn,Events,Conditions,WindDirDegrees,DateUTC
12:00 AM,83,76,73,,6,ESE,17.3,,,,Clear,110,2012-09-19 04:00:00
12:00 AM,82.4,75.2,79,29.95,-9999.0,North,-9999.0,-,N/A,,Unknown,0,2012-09-19 04:00:00
1:00 AM,80.6,75.2,84,29.95,-9999.0,North,-9999.0,-,N/A,,Unknown,0,2012-09-19 05:00:00
2:00 AM,81,76,80,,,ESE,17.3,,,,Clear,110,2012-09-19 06:00:00
2:00 AM,80.6,75.2,84,29.92,-9999.0,North,-9999.0,-,N/A,,Unknown,0,2012-09-19 06:00:00
3:00 AM,80.6,77.0,89,29.92,-9999.0,North,-9999.0,-,N/A,,Unknown,0,2012-09-19 07:00:00
4:00 AM,81,76,80,,,ESE,17.3,,,,Clear,120,2012-09-19 08:00:00
4:00 AM,80.6,75.2,84,29.92,-9999.0,North,-9999.0,-,N/A,,Unknown,0,2012-09-19 08:00:00
5:00 AM,80.6,75.2,84,29.92,-9999.0,North,-9999.0,-,N/A,,Unknown,0,2012-09-19 09:00:00
6:00 AM,80.6,75.2,84,29.92,-9999.0,North,-9999.0,-,N/A,,Unknown,0,2012-09-19 10:00:00
7:00 AM,84.2,77.0,79,29.92,-9999.0,North,-9999.0,-,N/A,,Unknown,0,2012-09-19 11:00:00
8:00 AM,87,77,66,29.96,31,SE,9.2,,,,Partly Cloudy,130,2012-09-19 12:00:00
8:00 AM,86.0,77.0,74,29.95,6.2,SE,9.2,-,N/A,,Scattered Clouds,130,2012-09-19 12:00:00
9:00 AM,87.8,77.0,70,29.95,6.2,ESE,11.5,-,N/A,,Scattered Clouds,120,2012-09-19 13:00:00
10:00 AM,89.6,75.2,62,29.95,6.2,ESE,17.3,-,N/A,,Scattered Clouds,110,2012-09-19 14:00:00
11:00 AM,89,75,55,29.97,31,East,10.4,,,,Partly Cloudy,100,2012-09-19 15:00:00
11:00 AM,89.6,75.2,62,29.95,6.2,East,10.4,-,N/A,,Scattered Clouds,100,2012-09-19 15:00:00
12:00 PM,89.6,75.2,62,29.95,6.2,SE,10.4,-,N/A,,Scattered Clouds,140,2012-09-19 16:00:00
1:00 PM,89.6,73.4,59,29.92,6.2,SE,10.4,-,N/A,,Partly Cloudy,140,2012-09-19 17:00:00
3:00 PM,89.6,75.2,62,29.86,6.2,ESE,17.3,-,N/A,,Partly Cloudy,110,2012-09-19 19:00:00
4:00 PM,89.6,75.2,62,29.86,6.2,East,11.5,-,N/A,,Scattered Clouds,100,2012-09-19 20:00:00
5:00 PM,87.8,75.2,66,29.89,6.2,East,10.4,-,N/A,,Partly Cloudy,90,2012-09-19 21:00:00
6:00 PM,86.0,75.2,70,29.86,6.2,East,11.5,-,N/A,,Partly Cloudy,80,2012-09-19 22:00:00
7:00 PM,84.2,75.2,74,29.86,6.2,East,10.4,-,N/A,,Partly Cloudy,80,2012-09-19 23:00:00
8:00 PM,84,76,70,29.89,22,East,12.7,,,,Partly Cloudy,80,2012-09-20 00:00:00
8:00 PM,84.2,75.2,74,29.86,6.2,East,12.7,-,N/A,,Partly Cloudy,80,2012-09-20 00:00:00
10:00 PM,84.2,77.0,79,29.92,-9999.0,North,-9999.0,-,N/A,,Unknown,0,2012-09-20 02:00:00
11:00 PM,83,77,77,,6,ESE,17.3,,,,Clear,110,2012-09-20 03:00:00
11:00 PM,84.2,77.0,79,29.92,-9999.0,ESE,17.3,-,N/A,,Unknown,110,2012-09-20 03:00:00